Location: Dompnac
(44.5644°N, 4.1026°E)
Time: 20:25:30
(UTC+00:00)

Ariane Rocket - Pass Details

Date: 19 September 2020
Orbit: 760 x 770 km, 98.7° (Epoch: 27 October)

Event Time Altitude Azimuth Distance (km) Brightness Sun altitude
Exits shadow 19:12:54 14° 154° (SSE) 2,026 4.8 -16.0°
Maximum altitude 19:17:15 70° 73° (ENE) 815 2.9 -16.8°
Drops below altitude 10° 19:22:19 10° 350° (N) 2,314 5.9 -17.6°
Sets 19:24:38 0° 349° (NNW) 3,246 6.7 -18.0°
